Weather History for KAPC - December, 2012

Change the Weather History Date:

Tuesday, December 25, 2012

  Actual Average Record
Temperature  
Mean Temperature 42 °F 45 °F  
Max Temperature 47 °F 55 °F 65 °F (2013)
Min Temperature 37 °F 36 °F 24 °F (1990)
Degree Days  
Heating Degree Days 23    
Month to date heating degree days 413  
Since 1 July heating degree days 985  
Cooling Degree Days 0    
Month to date cooling degree days 0  
Year to date cooling degree days 204  
Moisture  
Dew Point 41 °F    
Average Humidity 88    
Maximum Humidity 93    
Minimum Humidity 83    
Precipitation  
Precipitation 0.69 in - 1.65 in (1940)
Month to date precipitation 4.17  
Year to date precipitation 21.55  
Since 1 July precipitation 7.78  
Sea Level Pressure  
Sea Level Pressure 29.92 in    
Wind  
Wind Speed 8 mph (NE)    
Max Wind Speed 20 mph    
Max Gust Speed 26 mph    
Visibility 7 miles    
Events Rain    
T = Trace of Precipitation, MM = Missing Value Source: NWS Daily Summary

Daily Weather History Graph

Daily Weather History Graph

Search for Another Location

Airport or City:

Trip Planner

Search our weather history database for the weather conditions in past years. The results will help you decide how hot, cold, wet, or windy it might be!

Date:

Astronomy

Dec. 25, 2012 Rise Set
Actual Time 7:24 AM PST 4:55 PM PST
Civil Twilight 6:54 AM PST 5:24 PM PST
Nautical Twilight 6:21 AM PST 5:57 PM PST
Astronomical Twilight 5:49 AM PST 6:30 PM PST
Moon 3:06 PM PST (12/25) 5:01 AM PST (12/25)
Length of Visible Light 10h 30m
Length of Day
9h 30m
Waxing Gibbous, 94% of the Moon is Illuminated
Dec 25
Waxing Gibbous
Dec 28
Full
Jan 4
Last Quarter
Jan 11
New
Jan 18
First Quarter

Hourly Weather History & Observations

Time (PST) Temp. Windchill Dew Point Humidity Pressure Visibility Wind Dir Wind Speed Gust Speed Precip Events Conditions
12:54 AM 39.0 °F - 37.0 °F 93% 30.13 in 10.0 mi Calm Calm - N/A   Clear
1:23 AM 37.4 °F - 35.6 °F 93% 30.15 in 1.8 mi Calm Calm - N/A   Clear
1:31 AM 37.4 °F - 35.6 °F 93% 30.15 in 3.0 mi Calm Calm - N/A   Clear
1:54 AM 39.0 °F - 36.0 °F 89% 30.12 in 10.0 mi Calm Calm - N/A   Clear
2:54 AM 39.0 °F 34.8 °F 37.0 °F 93% 30.10 in 10.0 mi NNE 5.8 mph - N/A   Clear
3:54 AM 41.0 °F 38.0 °F 39.0 °F 93% 30.08 in 10.0 mi NNE 4.6 mph - N/A   Clear
4:54 AM 41.0 °F 36.4 °F 39.0 °F 93% 30.07 in 10.0 mi North 6.9 mph - N/A   Clear
5:54 AM 42.1 °F 38.4 °F 39.0 °F 89% 30.08 in 10.0 mi North 5.8 mph - N/A   Scattered Clouds
6:54 AM 42.1 °F 40.2 °F 39.0 °F 89% 30.08 in 10.0 mi North 3.5 mph - N/A   Mostly Cloudy
7:54 AM 43.0 °F - 39.9 °F 89% 30.09 in 10.0 mi Calm Calm - N/A   Overcast
8:54 AM 45.0 °F 41.8 °F 39.9 °F 82% 30.07 in 10.0 mi East 5.8 mph - 0.00 in Rain Light Rain
9:54 AM 44.1 °F 37.4 °F 37.9 °F 79% 30.06 in 10.0 mi East 13.8 mph 21.9 mph N/A   Overcast
10:54 AM 44.1 °F 36.8 °F 39.0 °F 82% 30.02 in 10.0 mi East 16.1 mph 23.0 mph 0.00 in   Overcast
11:54 AM 45.0 °F 39.7 °F 39.9 °F 82% 30.00 in 8.0 mi East 10.4 mph - 0.01 in Rain Light Rain
12:54 PM 45.0 °F 39.7 °F 39.9 °F 82% 29.97 in 9.0 mi East 10.4 mph - 0.00 in Rain Light Rain
1:54 PM 45.0 °F 41.8 °F 39.9 °F 82% 29.95 in 6.0 mi East 5.8 mph - 0.05 in Rain Light Rain
2:54 PM 44.1 °F 36.8 °F 39.9 °F 85% 29.88 in 3.0 mi East 16.1 mph 24.2 mph 0.04 in Rain Rain
3:54 PM 45.0 °F 38.9 °F 42.1 °F 90% 29.88 in 2.5 mi East 12.7 mph 19.6 mph 0.21 in Rain Heavy Rain
4:54 PM 45.0 °F 37.4 °F 42.1 °F 90% 29.83 in 2.0 mi East 18.4 mph - 0.19 in Rain Rain
5:01 PM 44.6 °F 37.4 °F 42.8 °F 93% 29.86 in 5.0 mi East 16.1 mph 26.5 mph 0.01 in Rain Rain
5:35 PM 46.4 °F 41.1 °F 42.8 °F 87% 29.84 in 7.0 mi East 11.5 mph - 0.01 in Rain Light Rain
5:54 PM 46.0 °F 39.6 °F 43.0 °F 89% 29.80 in 4.0 mi East 15.0 mph 24.2 mph 0.01 in Rain Light Rain
6:14 PM 46.4 °F 40.7 °F 42.8 °F 87% 29.83 in 7.0 mi East 12.7 mph 18.4 mph 0.00 in Rain Light Rain
6:54 PM 46.0 °F 39.3 °F 43.0 °F 89% 29.76 in 10.0 mi East 16.1 mph 24.2 mph 0.00 in   Overcast
7:40 PM 46.4 °F 44.3 °F 42.8 °F 87% 29.80 in 2.5 mi Variable 4.6 mph 17.3 mph 0.08 in Rain Heavy Rain
7:47 PM 46.4 °F 42.4 °F 44.6 °F 93% 29.82 in 2.0 mi West 8.1 mph - 0.12 in Rain Heavy Rain
7:51 PM 46.4 °F 45.2 °F 44.6 °F 93% 29.82 in 1.8 mi Variable 3.5 mph - 0.15 in Rain Heavy Rain
7:54 PM 46.0 °F - 44.1 °F 93% 29.79 in 1.8 mi Calm Calm - 0.17 in Rain Heavy Rain
7:57 PM 46.4 °F 42.4 °F 44.6 °F 93% 29.81 in 2.0 mi NNW 8.1 mph - 0.01 in Rain Heavy Rain
8:01 PM 46.4 °F 42.9 °F 44.6 °F 93% 29.80 in 3.0 mi North 6.9 mph - 0.01 in Rain Rain
8:12 PM 46.4 °F 42.9 °F 44.6 °F 93% 29.79 in 7.0 mi East 6.9 mph - 0.01 in Rain Light Rain
8:26 PM 46.4 °F 44.3 °F 44.6 °F 93% 29.79 in 10.0 mi East 4.6 mph - 0.01 in Rain Light Rain
8:54 PM 46.9 °F - 44.1 °F 90% 29.78 in 10.0 mi North 5.8 mph - 0.01 in   Overcast
9:11 PM 46.4 °F 45.2 °F 44.6 °F 93% 29.80 in 10.0 mi North 3.5 mph - N/A   Overcast
9:39 PM 46.4 °F 42.4 °F 44.6 °F 93% 29.82 in 10.0 mi WNW 8.1 mph - N/A   Overcast
9:54 PM 46.0 °F - 45.0 °F 96% 29.80 in 10.0 mi Calm Calm - N/A   Overcast
10:35 PM 46.4 °F 45.2 °F 42.8 °F 87% 29.83 in 10.0 mi WNW 3.5 mph - N/A   Mostly Cloudy
10:54 PM 44.1 °F 42.5 °F 42.1 °F 93% 29.82 in 8.0 mi West 3.5 mph - N/A   Mostly Cloudy
11:54 PM 45.0 °F 43.5 °F 43.0 °F 93% 29.83 in 5.0 mi SSW 3.5 mph - N/A   Mostly Cloudy